Tracking 26240 objects as of 6-Oct-2022
HD Live streaming from Space Station
objects crossing your sky now

STARLINK-3353

Track STARLINK-3353 now!
10-day predictions
STARLINK-3353 is classified as:


NORAD ID: 50807
Int'l Code: 2022-001E
Perigee: 545.6 km
Apogee: 548.2 km
Inclination: 53.2 °
Period: 95.4 minutes
Semi major axis: 6917 km
RCS: Unknown
Launch date: January 6, 2022
Source: United States (US)
Launch site: AIR FORCE EASTERN TEST RANGE (AFETR)
aabbcc
Your satellite tracking list
Your tracking list is empty




NASA's NSSDC Master Catalog

Two Line Element Set (TLE):
1 50807U 22001E   22278.78931527  .00000778  00000-0  67010-4 0  9998
2 50807  53.2163  14.6492 0001872  49.4073 310.7082 15.08828130 41702
Source of the keplerian elements: AFSPC